Location: Caltech
(34.1382°N, 118.1253°W)
Time: 13:47:15
(UTC-07:00)

Iridium 49 - Visible Passes

Search period start: 18 April 2015 00:00
Search period end: 28 April 2015 00:00
Orbit: 776 x 779 km, 86.4° (Epoch: 17 April)

Date Brightness Start Highest point End Pass type
(mag) Time Alt. Az. Time Alt. Az. Time Alt. Az.
18 Apr 8.9 01:32:40 11° NNE 01:32:40 11° NNE 01:32:56 10° NNE visible
18 Apr 8.5 03:13:07 13° NNW 03:13:07 13° NNW 03:13:45 10° NNW visible
19 Apr 8.4 02:39:41 16° N 02:39:41 16° N 02:40:44 10° N visible
20 Apr 8.6 02:06:14 16° N 02:06:14 16° N 02:07:18 10° N visible
21 Apr 8.8 01:32:45 14° NNE 01:32:45 14° NNE 01:33:28 10° NNE visible
22 Apr 8.5 02:39:45 14° NNW 02:39:45 14° NNW 02:40:35 10° NNW visible
23 Apr 8.5 02:06:17 17° N 02:06:17 17° N 02:07:23 10° N visible
24 Apr 8.6 01:32:47 16° NNE 01:32:47 16° NNE 01:33:47 10° N visible
25 Apr 8.8 00:59:18 12° NNE 00:59:18 12° NNE 00:59:45 10° NNE visible
25 Apr 8.6 02:39:46 12° NNW 02:39:46 12° NNW 02:40:13 10° NNW visible
26 Apr 8.5 02:06:16 16° NNW 02:06:16 16° NNW 02:07:19 10° N visible
27 Apr 8.5 01:32:46 17° N 01:32:46 17° N 01:33:57 10° N visible
